Toronto Pearson, Ontario

3:22 PM EST on December 05, 2019 (GMT -0500)
Toronto-Pearson International

Weather History for CYYZ - June, 2019

Change the Weather History Date:

Tuesday, June 11, 2019

  Actual Average Record
Temperature  
Mean Temperature 61 °F -  
Max Temperature 72 °F 76 °F 89 °F (2017)
Min Temperature 50 °F 54 °F 46 °F (2006)
Degree Days  
Heating Degree Days 4    
Growing Degree Days 11 (Base 50)    
Moisture  
Dew Point 44 °F    
Average Humidity 52    
Maximum Humidity 88    
Minimum Humidity 21    
Precipitation  
Precipitation 0.00 in 0.09 in - ()
Sea Level Pressure  
Sea Level Pressure 30.07 in    
Wind  
Wind Speed 13 mph ()    
Max Wind Speed 20 mph    
Max Gust Speed 29 mph    
Visibility 15.0 miles    
Events      
Averages and records for this station are not official NWS values.
T = Trace of Precipitation, MM = Missing Value Source: Averaged Metar Reports

Daily Weather History Graph

Daily Weather History Graph

Search for Another Location

Airport or City:

Astronomy

Jun. 11, 2019 Rise Set
Actual Time 5:36 AM EDT 8:59 PM EDT
Civil Twilight 5:00 AM EDT 9:35 PM EDT
Nautical Twilight 4:14 AM EDT 10:22 PM EDT
Astronomical Twilight 3:15 AM EDT 11:21 PM EDT
Moon 2:44 PM EDT (6/11) 2:33 AM EDT (6/11)
Length of Visible Light 16h 34m
Length of Day
15h 23m
Waxing Gibbous, 66% of the Moon is Illuminated
Jun 11
Waxing Gibbous
Jun 17
Full
Jun 25
Last Quarter
Jul 2
New
Jul 9
First Quarter

Hourly Weather History & Observations

Time (EDT) Temp. Dew Point Humidity Pressure Visibility Wind Dir Wind Speed Gust Speed Precip Events Conditions
12:00 AM 55.4 °F 50.0 °F 82% 29.90 in 15.0 mi WNW 18.4 mph 25.3 mph N/A   Partly Cloudy
1:00 AM 55.4 °F 50.0 °F 82% 29.91 in 15.0 mi WNW 19.6 mph 27.6 mph N/A   Partly Cloudy
2:00 AM 54 °F 49 °F 79% 29.94 in 15 mi WNW 17.3 mph - -   Partly Cloudy
2:00 AM 55.4 °F 50.0 °F 82% 29.94 in 15.0 mi WNW 18.4 mph - N/A   Partly Cloudy
3:00 AM 53.6 °F 50.0 °F 88% 29.96 in 15.0 mi WNW 13.8 mph 21.9 mph N/A   Partly Cloudy
4:00 AM 55.4 °F 48.2 °F 77% 29.98 in 15.0 mi WNW 15.0 mph - N/A   Mostly Cloudy
5:00 AM 54 °F 48 °F 72% 30.01 in 15 mi WNW 13.8 mph - -  
6:00 AM 51.8 °F 46.4 °F 82% 30.03 in 15.0 mi West 6.9 mph - N/A   Partly Cloudy
7:00 AM 53.6 °F 48.2 °F 82% 30.07 in 15.0 mi Variable 5.8 mph - N/A   Partly Cloudy
8:00 AM 56 °F 47 °F 63% 30.10 in 15 mi WNW 13.8 mph - -   Scattered Clouds
8:00 AM 57.2 °F 46.4 °F 67% 30.10 in 15.0 mi WNW 12.7 mph - N/A   Partly Cloudy
9:00 AM 59.0 °F 48.2 °F 67% 30.12 in 15.0 mi WNW 11.5 mph - N/A   Partly Cloudy
10:00 AM 62.6 °F 46.4 °F 55% 30.12 in 15.0 mi WNW 15.0 mph 20.7 mph N/A   Partly Cloudy
11:00 AM 67 °F 46 °F 36% 30.11 in 15 mi WNW 15.0 mph - -  
11:00 AM 66.2 °F 46.4 °F 49% 30.11 in 15.0 mi West 18.4 mph - N/A   Partly Cloudy
12:00 PM 68.0 °F 44.6 °F 43% 30.11 in 15.0 mi WNW 19.6 mph - N/A   Scattered Clouds
1:00 PM 69.8 °F 44.6 °F 40% 30.11 in 15.0 mi NW 19.6 mph 27.6 mph N/A   Mostly Cloudy
2:00 PM 71 °F 45 °F 28% 30.11 in 15 mi WNW 17.3 mph - -   Mostly Cloudy
2:00 PM 69.8 °F 44.6 °F 40% 30.11 in 15.0 mi WNW 17.3 mph 24.2 mph N/A   Mostly Cloudy
3:00 PM 68.0 °F 44.6 °F 43% 30.11 in 15.0 mi WNW 17.3 mph 26.5 mph N/A   Mostly Cloudy
4:00 PM 71.6 °F 44.6 °F 38% 30.11 in 15.0 mi West 16.1 mph 24.2 mph N/A   Mostly Cloudy
5:00 PM 72 °F 41 °F 22% 30.11 in 15 mi WNW 12.7 mph - -  
5:00 PM 71.6 °F 41.0 °F 33% 30.11 in 15.0 mi NW 18.4 mph 28.8 mph N/A   Mostly Cloudy
6:00 PM 69.8 °F 39.2 °F 33% 30.12 in 15.0 mi NW 17.3 mph 25.3 mph N/A   Scattered Clouds
7:00 PM 69.8 °F 35.6 °F 28% 30.11 in 15.0 mi WNW 15.0 mph - N/A   Partly Cloudy
8:00 PM 67 °F 36 °F 21% 30.12 in 15 mi NW 11.5 mph - -   Clear
8:00 PM 66.2 °F 37.4 °F 35% 30.11 in 15.0 mi NW 10.4 mph 20.7 mph N/A   Partly Cloudy
9:00 PM 64.4 °F 35.6 °F 34% 30.12 in 15.0 mi Variable 5.8 mph - N/A   Partly Cloudy
10:00 PM 62.6 °F 37.4 °F 39% 30.12 in 15.0 mi Variable 8.1 mph - N/A   Partly Cloudy
11:00 PM 58 °F 39 °F 38% 30.13 in 15 mi South 4.6 mph - -  
11:00 PM 59.0 °F 39.2 °F 48% 30.12 in 15.0 mi South 6.9 mph - N/A   Clear